Station Historical Data
Daily Summary for January 30, 2017 Units:  Metric    English   Both
Next Day »
Daily Weekly Monthly Yearly Custom
  High: Low: Average:
Temperature: 15.3 °C 6.3 °C 9.6 °C
Dew Point: 7.1 °C -1.8 °C 2.2 °C
Humidity: 78% 47% 60%
Wind Speed: 17.7km/h 0km/h 2.3km/h
Wind Gust: 22.5km/h - -
Wind- - ESE
Pressure: 1028 hPa 1023.2 hPa -
Precipitation: 0 mm    
Historical Graphs
 
 
Tabular Data for January 30, 2017
Time Temperature Dew Point Pressure Wind Wind Speed Wind Gust Humidity Rainfall Rate (Hourly) solar Conditions
00:03 7.5 °C 0.4 °C 1028 hPa Calm   8 km/h 61% 0 mm 0.00 W/m2
00:08 7.4 °C 0.4 °C 1027.7 hPa Calm   6.4 km/h 61% 0 mm 0.00 W/m2
00:13 7.4 °C 0.4 °C 1028 hPa East 1.6 km/h 8 km/h 61% 0 mm 0.00 W/m2
00:18 7.3 °C 0.1 °C 1028 hPa Calm   9.7 km/h 60% 0 mm 0.00 W/m2
00:24 7.2 °C 0.2 °C 1027.7 hPa East 9.7 km/h 11.3 km/h 61% 0 mm 0.00 W/m2
00:29 7.2 °C 0.2 °C 1027.7 hPa East 1.6 km/h 12.9 km/h 61% 0 mm 0.00 W/m2
00:34 7.1 °C 0.1 °C 1027.7 hPa ESE 9.7 km/h 12.9 km/h 61% 0 mm 0.00 W/m2
00:39 7.1 °C 0.1 °C 1027.7 hPa ESE 3.2 km/h 14.5 km/h 61% 0 mm 0.00 W/m2
00:44 7.1 °C 0.1 °C 1027.7 hPa Calm   12.9 km/h 61% 0 mm 0.00 W/m2
00:49 7.1 °C -0.2 °C 1027.7 hPa Calm   8 km/h 60% 0 mm 0.00 W/m2
00:54 7.1 °C -0.2 °C 1027.7 hPa ESE 6.4 km/h 14.5 km/h 60% 0 mm 0.00 W/m2
00:59 7.1 °C 0.1 °C 1027.7 hPa East 8 km/h 11.3 km/h 61% 0 mm 0.00 W/m2
01:04 7.1 °C 0.3 °C 1027.3 hPa ESE 17.7 km/h 19.3 km/h 62% 0 mm 0.00 W/m2
01:09 7.1 °C 0.1 °C 1027.3 hPa East 6.4 km/h 20.9 km/h 61% 0 mm 0.00 W/m2
01:14 7.1 °C -0.4 °C 1027.3 hPa ESE 1.6 km/h 19.3 km/h 59% 0 mm 0.00 W/m2
01:19 7.1 °C -0.3 °C 1027.3 hPa ESE 12.9 km/h 12.9 km/h 59% 0 mm 0.00 W/m2
01:24 7.2 °C -0.1 °C 1027.3 hPa Calm   12.9 km/h 60% 0 mm 0.00 W/m2
01:29 7.2 °C -0.3 °C 1027.3 hPa Calm   14.5 km/h 59% 0 mm 0.00 W/m2
01:34 7.2 °C -0.5 °C 1027.3 hPa Calm   9.7 km/h 58% 0 mm 0.00 W/m2
01:39 7.3 °C -0.7 °C 1027.3 hPa Calm   9.7 km/h 57% 0 mm 0.00 W/m2
01:44 7.3 °C 0.1 °C 1027.3 hPa Calm   9.7 km/h 60% 0 mm 0.00 W/m2
01:49 7.3 °C -0.7 °C 1027.3 hPa East 6.4 km/h 11.3 km/h 57% 0 mm 0.00 W/m2
01:54 7.3 °C -0.4 °C 1027.3 hPa East 3.2 km/h 12.9 km/h 58% 0 mm 0.00 W/m2
01:59 7.3 °C -0.7 °C 1027.3 hPa ESE 8 km/h 9.7 km/h 57% 0 mm 0.00 W/m2
02:04 7.3 °C -0.6 °C 1027.3 hPa ESE 3.2 km/h 9.7 km/h 57% 0 mm 0.00 W/m2
02:09 7.3 °C -0.6 °C 1027.3 hPa Calm   12.9 km/h 57% 0 mm 0.00 W/m2
02:14 7.3 °C -0.4 °C 1027.3 hPa Calm   9.7 km/h 58% 0 mm 0.00 W/m2
02:19 7.3 °C -0.4 °C 1027.3 hPa ESE 6.4 km/h 12.9 km/h 58% 0 mm 0.00 W/m2
02:24 7.3 °C -0.4 °C 1027.3 hPa ESE 1.6 km/h 11.3 km/h 58% 0 mm 0.00 W/m2
02:29 7.2 °C -0.3 °C 1027.3 hPa ESE 1.6 km/h 11.3 km/h 59% 0 mm 0.00 W/m2
02:34 7.1 °C -0.3 °C 1027.3 hPa Calm   17.7 km/h 59% 0 mm 0.00 W/m2
02:39 7.1 °C -0.2 °C 1027.3 hPa ESE 1.6 km/h 14.5 km/h 60% 0 mm 0.00 W/m2
02:44 6.9 °C -0.3 °C 1027.3 hPa ESE 1.6 km/h 14.5 km/h 60% 0 mm 0.00 W/m2
02:49 6.8 °C -0.4 °C 1027.3 hPa Calm   11.3 km/h 60% 0 mm 0.00 W/m2
02:54 6.8 °C -0.2 °C 1027.3 hPa ESE 11.3 km/h 14.5 km/h 61% 0 mm 0.00 W/m2
02:59 6.7 °C -0.3 °C 1027.3 hPa Calm   14.5 km/h 61% 0 mm 0.00 W/m2
03:05 6.7 °C -0.3 °C 1027.3 hPa ESE 1.6 km/h 11.3 km/h 61% 0 mm 0.00 W/m2
03:10 6.7 °C -0.3 °C 1027 hPa Calm   17.7 km/h 61% 0 mm 0.00 W/m2
03:15 6.7 °C -0.6 °C 1027.3 hPa ESE 1.6 km/h 9.7 km/h 60% 0 mm 0.00 W/m2
03:20 6.7 °C -0.6 °C 1027 hPa ESE 6.4 km/h 9.7 km/h 60% 0 mm 0.00 W/m2
03:25 6.6 °C -0.4 °C 1027 hPa ESE 3.2 km/h 11.3 km/h 61% 0 mm 0.00 W/m2
03:30 6.6 °C -0.4 °C 1027 hPa Calm   11.3 km/h 61% 0 mm 0.00 W/m2
03:35 6.6 °C -0.4 °C 1027 hPa ESE 3.2 km/h 12.9 km/h 61% 0 mm 0.00 W/m2
03:40 6.6 °C -0.4 °C 1027 hPa Calm   9.7 km/h 61% 0 mm 0.00 W/m2
03:45 6.6 °C -0.4 °C 1027 hPa ESE 3.2 km/h 11.3 km/h 61% 0 mm 0.00 W/m2
03:50 6.6 °C -0.2 °C 1027 hPa ESE 9.7 km/h 11.3 km/h 62% 0 mm 0.00 W/m2
03:51 6.6 °C -0.2 °C 1027 hPa ESE 1.6 km/h 11.3 km/h 62% 0 mm 0.00 W/m2
03:56 6.6 °C -0.2 °C 1027 hPa ESE 3.2 km/h 3.2 km/h 62% 0 mm 0.00 W/m2
04:01 6.5 °C -0.7 °C 1027 hPa Calm     60% 0 mm 0.00 W/m2
04:06 6.4 °C -0.6 °C 1027 hPa ESE 3.2 km/h 6.4 km/h 61% 0 mm 0.00 W/m2
04:11 6.4 °C -0.8 °C 1026.6 hPa ESE 6.4 km/h 6.4 km/h 60% 0 mm 0.00 W/m2
04:16 6.4 °C -0.8 °C 1026.6 hPa ESE 6.4 km/h 6.4 km/h 60% 0 mm 0.00 W/m2
04:21 6.4 °C -0.6 °C 1026.6 hPa ESE 1.6 km/h 3.2 km/h 61% 0 mm 0.00 W/m2
04:26 6.4 °C -0.6 °C 1026.6 hPa ESE 1.6 km/h 11.3 km/h 61% 0 mm 0.00 W/m2
04:31 6.4 °C -0.8 °C 1026.6 hPa Calm   9.7 km/h 60% 0 mm 0.00 W/m2
04:36 6.4 °C -1.2 °C 1026.3 hPa East 3.2 km/h 8 km/h 58% 0 mm 0.00 W/m2
04:41 6.5 °C -0.9 °C 1026.3 hPa ESE 9.7 km/h 12.9 km/h 59% 0 mm 0.00 W/m2
04:46 6.5 °C -0.7 °C 1026.3 hPa East 3.2 km/h 12.9 km/h 60% 0 mm 0.00 W/m2
04:51 6.5 °C -0.5 °C 1026.3 hPa Calm   3.2 km/h 61% 0 mm 0.00 W/m2
04:56 6.4 °C -0.6 °C 1026.3 hPa ESE 9.7 km/h 9.7 km/h 61% 0 mm 0.00 W/m2
05:01 6.4 °C -0.8 °C 1026.3 hPa ESE 6.4 km/h 9.7 km/h 60% 0 mm 0.00 W/m2
05:06 6.4 °C -0.6 °C 1026.3 hPa East 3.2 km/h 9.7 km/h 61% 0 mm 0.00 W/m2
05:11 6.3 °C -0.8 °C 1026.3 hPa Calm   1.6 km/h 60% 0 mm 0.00 W/m2
05:16 6.3 °C -0.6 °C 1026.3 hPa East 8 km/h 8 km/h 61% 0 mm 0.00 W/m2
05:21 6.3 °C -0.8 °C 1026.3 hPa ESE 6.4 km/h 6.4 km/h 60% 0 mm 0.00 W/m2
05:26 6.3 °C -0.6 °C 1026.3 hPa ESE 3.2 km/h 12.9 km/h 61% 0 mm 0.00 W/m2
05:31 6.3 °C -0.6 °C 1026.3 hPa Calm   3.2 km/h 61% 0 mm 0.00 W/m2
05:36 6.3 °C -0.8 °C 1026.3 hPa Calm   11.3 km/h 60% 0 mm 0.00 W/m2
05:41 6.3 °C -0.8 °C 1026.3 hPa Calm   19.3 km/h 60% 0 mm 0.00 W/m2
05:46 6.4 °C -1.1 °C 1026.3 hPa ESE 17.7 km/h 20.9 km/h 59% 0 mm 0.00 W/m2
05:52 6.4 °C -1 °C 1026 hPa Calm   11.3 km/h 59% 0 mm 0.00 W/m2
05:57 6.4 °C -0.8 °C 1026.3 hPa ESE 11.3 km/h 22.5 km/h 60% 0 mm 0.00 W/m2
06:02 6.4 °C -1 °C 1026.3 hPa ESE 3.2 km/h 3.2 km/h 59% 0 mm 0.00 W/m2
06:07 6.4 °C -1.2 °C 1026.3 hPa Calm   8 km/h 58% 0 mm 0.00 W/m2
06:12 6.5 °C -0.7 °C 1026.3 hPa Calm   1.6 km/h 60% 0 mm 0.00 W/m2
06:17 6.4 °C -1 °C 1026.3 hPa Calm   1.6 km/h 59% 0 mm 0.00 W/m2
06:22 6.4 °C -0.6 °C 1026.3 hPa Calm   6.4 km/h 61% 0 mm 0.00 W/m2
06:27 6.4 °C -1.2 °C 1026.3 hPa Calm   3.2 km/h 58% 0 mm 0.00 W/m2
06:32 6.4 °C -1.3 °C 1026.3 hPa ESE 3.2 km/h 6.4 km/h 58% 0 mm 0.00 W/m2
06:37 6.4 °C -1.3 °C 1026.3 hPa ESE 1.6 km/h 6.4 km/h 58% 0 mm 0.00 W/m2
06:42 6.4 °C -1.5 °C 1026.3 hPa Calm   1.6 km/h 57% 0 mm 0.00 W/m2
06:47 6.4 °C -1.1 °C 1026.3 hPa Calm   11.3 km/h 59% 0 mm 0.00 W/m2
06:52 6.4 °C -1.5 °C 1026.3 hPa East 1.6 km/h 12.9 km/h 57% 0 mm 0.00 W/m2
06:57 6.4 °C -1.5 °C 1026.3 hPa ESE 3.2 km/h 6.4 km/h 57% 0 mm 0.00 W/m2
07:02 6.4 °C -1.7 °C 1026.3 hPa East 6.4 km/h 9.7 km/h 56% 0 mm 0.00 W/m2
07:07 6.5 °C -1.4 °C 1026.3 hPa ESE 1.6 km/h 6.4 km/h 57% 0 mm 5.00 W/m2
07:12 6.6 °C -1.3 °C 1026.3 hPa Calm   6.4 km/h 57% 0 mm 5.00 W/m2
07:17 6.6 °C -1.3 °C 1026.3 hPa ESE 3.2 km/h 6.4 km/h 57% 0 mm 9.00 W/m2
07:22 6.6 °C -1.3 °C 1026.3 hPa ESE 6.4 km/h 9.7 km/h 57% 0 mm 14.00 W/m2
07:27 6.6 °C -1.3 °C 1026.3 hPa ESE 6.4 km/h 8 km/h 57% 0 mm 21.00 W/m2
07:32 6.6 °C -1.8 °C 1026.6 hPa ESE 1.6 km/h 11.3 km/h 55% 0 mm 26.00 W/m2
07:37 6.6 °C -1.6 °C 1026.6 hPa ESE 1.6 km/h 8 km/h 56% 0 mm 33.00 W/m2
07:42 6.6 °C -1.6 °C 1026.6 hPa ESE 1.6 km/h 6.4 km/h 56% 0 mm 42.00 W/m2
07:47 6.6 °C -1.1 °C 1026.6 hPa Calm   9.7 km/h 58% 0 mm 54.00 W/m2
07:52 6.6 °C -1.1 °C 1026.6 hPa ESE 1.6 km/h 6.4 km/h 58% 0 mm 69.00 W/m2
07:57 6.6 °C -1.1 °C 1026.6 hPa East 3.2 km/h 11.3 km/h 58% 0 mm 83.00 W/m2
08:02 6.6 °C -0.7 °C 1026.6 hPa ESE 1.6 km/h 6.4 km/h 60% 0 mm 91.00 W/m2
08:08 6.6 °C -0.9 °C 1026.6 hPa ESE 1.6 km/h 3.2 km/h 59% 0 mm 105.00 W/m2
08:13 6.6 °C -1.3 °C 1026.6 hPa Calm   9.7 km/h 57% 0 mm 125.00 W/m2
08:18 6.7 °C -1 °C 1026.6 hPa Calm   3.2 km/h 58% 0 mm 151.00 W/m2
08:19 6.7 °C -0.9 °C 1026.6 hPa Calm   9.7 km/h 58% 0 mm 158.00 W/m2
08:22 6.8 °C -0.9 °C 1026.6 hPa Calm   3.2 km/h 58% 0 mm 163.00 W/m2
08:23 6.8 °C -1.1 °C 1026.6 hPa Calm   8 km/h 57% 0 mm 163.00 W/m2
08:27 6.8 °C -1.1 °C 1026.6 hPa Calm   1.6 km/h 57% 0 mm 181.00 W/m2
08:32 6.9 °C -0.7 °C 1026.6 hPa Calm   8 km/h 58% 0 mm 197.00 W/m2
08:37 7.1 °C -0.4 °C 1026.6 hPa Calm   8 km/h 59% 0 mm 220.00 W/m2
08:42 7.2 °C 0.2 °C 1026.6 hPa Calm   3.2 km/h 61% 0 mm 230.00 W/m2
08:47 7.3 °C 0.3 °C 1026.6 hPa Calm   6.4 km/h 61% 0 mm 244.00 W/m2
08:52 7.3 °C -0.2 °C 1026.6 hPa ESE 1.6 km/h 1.6 km/h 59% 0 mm 294.00 W/m2
08:57 7.4 °C 0.1 °C 1026.6 hPa Calm   8 km/h 60% 0 mm 309.00 W/m2
09:03 7.4 °C -0.5 °C 1026.6 hPa Calm   8 km/h 57% 0 mm 301.00 W/m2
09:08 7.6 °C -0.3 °C 1026.6 hPa ESE 1.6 km/h 8 km/h 57% 0 mm 311.00 W/m2
09:13 7.8 °C 0.1 °C 1026.6 hPa Calm   9.7 km/h 58% 0 mm 308.00 W/m2
09:23 8.2 °C 0.9 °C 1026.6 hPa Calm   8 km/h 60% 0 mm 353.00 W/m2
09:28 8.3 °C 1.3 °C 1026.6 hPa Calm     61% 0 mm 367.00 W/m2
09:34 8.5 °C 0.7 °C 1027 hPa Calm     58% 0 mm 378.00 W/m2
09:39 8.7 °C 1.3 °C 1027 hPa Calm     60% 0 mm 411.00 W/m2
09:44 8.9 °C 1.6 °C 1026.6 hPa ESE 1.6 km/h 3.2 km/h 60% 0 mm 427.00 W/m2
09:49 9.1 °C 1.7 °C 1026.6 hPa Calm     60% 0 mm 441.00 W/m2
09:54 9.3 °C 2.4 °C 1027 hPa ESE 6.4 km/h 6.4 km/h 62% 0 mm 415.00 W/m2
09:59 9.4 °C 2.1 °C 1027 hPa Calm   9.7 km/h 60% 0 mm 461.00 W/m2
10:06 9.7 °C 1.4 °C 1026.6 hPa Calm     56% 0 mm 494.00 W/m2
10:11 9.9 °C 1.6 °C 1026.6 hPa ESE 9.7 km/h 9.7 km/h 56% 0 mm 462.00 W/m2
10:14 10.1 °C 1.4 °C 1026.6 hPa Calm   12.9 km/h 55% 0 mm 489.00 W/m2
10:16 10.2 °C 1 °C 1027 hPa Calm   6.4 km/h 53% 0 mm 494.00 W/m2
10:21 10.5 °C 1.1 °C 1027 hPa ESE 3.2 km/h 8 km/h 52% 0 mm 512.00 W/m2
10:26 10.7 °C -0.1 °C 1027 hPa ESE 6.4 km/h 9.7 km/h 47% 0 mm 524.00 W/m2
10:31 11 °C 0.1 °C 1027 hPa Calm   3.2 km/h 47% 0 mm 512.00 W/m2
10:36 11.3 °C 1.5 °C 1026.6 hPa Calm   3.2 km/h 51% 0 mm 522.00 W/m2
10:41 11.5 °C 1.4 °C 1026.6 hPa Calm     50% 0 mm 545.00 W/m2
10:46 11.7 °C 1.7 °C 1026.6 hPa ESE 1.6 km/h 1.6 km/h 50% 0 mm 526.00 W/m2
10:51 12.1 °C 1.9 °C 1026.6 hPa Calm     50% 0 mm 552.00 W/m2
10:56 12.3 °C 1.7 °C 1026.6 hPa Calm     48% 0 mm 570.00 W/m2
11:01 12.6 °C 2.4 °C 1026.6 hPa SE 8 km/h 9.7 km/h 50% 0 mm 566.00 W/m2
11:06 12.8 °C 2.4 °C 1026.6 hPa Calm   1.6 km/h 49% 0 mm 536.00 W/m2
11:11 13 °C 2.8 °C 1026.6 hPa SE 1.6 km/h 1.6 km/h 50% 0 mm 582.00 W/m2
11:16 13.2 °C 2.7 °C 1026.3 hPa Calm     49% 0 mm 571.00 W/m2
11:21 13.3 °C 2.8 °C 1026.3 hPa Calm   3.2 km/h 49% 0 mm 584.00 W/m2
11:27 13.4 °C 3.2 °C 1026.3 hPa Calm     50% 0 mm 582.00 W/m2
11:32 13.5 °C 2.7 °C 1026.3 hPa Calm   3.2 km/h 48% 0 mm 598.00 W/m2
11:37 13.6 °C 3.3 °C 1026.3 hPa Calm   3.2 km/h 50% 0 mm 510.00 W/m2
11:42 13.6 °C 2.5 °C 1026 hPa Calm   3.2 km/h 47% 0 mm 536.00 W/m2
11:47 13.7 °C 3.5 °C 1026 hPa South 1.6 km/h 6.4 km/h 50% 0 mm 390.00 W/m2
11:52 13.8 °C 2.9 °C 1026 hPa South 1.6 km/h 3.2 km/h 48% 0 mm 374.00 W/m2
11:57 13.8 °C 3.3 °C 1026 hPa Calm     49% 0 mm 420.00 W/m2
12:02 13.9 °C 3.9 °C 1026 hPa Calm     51% 0 mm 448.00 W/m2
12:07 13.9 °C 3.4 °C 1026 hPa Calm     49% 0 mm 496.00 W/m2
12:12 14.1 °C 3.8 °C 1026 hPa Calm     50% 0 mm 438.00 W/m2
12:17 14.1 °C 3.3 °C 1026 hPa Calm     48% 0 mm 490.00 W/m2
12:22 14.2 °C 3.6 °C 1025.6 hPa Calm     49% 0 mm 482.00 W/m2
12:27 14.2 °C 3.9 °C 1025.6 hPa Calm     50% 0 mm 496.00 W/m2
12:32 14.3 °C 4.8 °C 1025.6 hPa Calm     53% 0 mm 461.00 W/m2
12:37 14.3 °C 5.4 °C 1025.6 hPa Calm     55% 0 mm 476.00 W/m2
12:42 14.2 °C 4.7 °C 1025.6 hPa Calm     53% 0 mm 464.00 W/m2
12:47 14.1 °C 4.6 °C 1025.6 hPa Calm     53% 0 mm 512.00 W/m2
12:52 14 °C 4.3 °C 1025.6 hPa Calm     52% 0 mm 573.00 W/m2
12:57 14 °C 4.3 °C 1025.3 hPa Calm     52% 0 mm 483.00 W/m2
13:02 14 °C 4.6 °C 1025.3 hPa Calm     53% 0 mm 591.00 W/m2
13:07 14.1 °C 5.2 °C 1025.3 hPa Calm     55% 0 mm 608.00 W/m2
13:12 14.1 °C 4.3 °C 1025.3 hPa South 1.6 km/h 3.2 km/h 52% 0 mm 599.00 W/m2
13:17 14.2 °C 4.2 °C 1025.3 hPa Calm   4.8 km/h 51% 0 mm 584.00 W/m2
13:22 14.3 °C 4.6 °C 1025.3 hPa Calm   6.4 km/h 52% 0 mm 533.00 W/m2
13:27 14.3 °C 4.1 °C 1024.9 hPa SSW 1.6 km/h 6.4 km/h 50% 0 mm 541.00 W/m2
13:32 14.4 °C 4.4 °C 1024.9 hPa Calm   4.8 km/h 51% 0 mm 557.00 W/m2
13:37 14.4 °C 4.2 °C 1024.9 hPa Calm   6.4 km/h 50% 0 mm 496.00 W/m2
13:42 14.6 °C 4.6 °C 1024.9 hPa Calm     51% 0 mm 541.00 W/m2
13:47 14.6 °C 5.4 °C 1024.6 hPa Calm     54% 0 mm 529.00 W/m2
13:52 14.7 °C 5 °C 1024.6 hPa Calm   8 km/h 52% 0 mm 527.00 W/m2
13:57 14.9 °C 4.9 °C 1024.6 hPa Calm     51% 0 mm 529.00 W/m2
14:02 15.1 °C 4.5 °C 1024.6 hPa SSE 8 km/h 9.7 km/h 49% 0 mm 524.00 W/m2
14:08 15.3 °C 4.6 °C 1024.6 hPa Calm   8 km/h 49% 0 mm 508.00 W/m2
14:13 15.3 °C 5 °C 1024.6 hPa Calm   3.2 km/h 50% 0 mm 478.00 W/m2
14:18 15.3 °C 5.3 °C 1024.6 hPa Calm     51% 0 mm 492.00 W/m2
14:23 15.3 °C 5.3 °C 1024.6 hPa SSE 1.6 km/h 8 km/h 51% 0 mm 487.00 W/m2
14:28 15.3 °C 5.8 °C 1024.6 hPa Calm   8 km/h 53% 0 mm 468.00 W/m2
14:33 15.3 °C 6.1 °C 1024.3 hPa Calm   9.7 km/h 54% 0 mm 413.00 W/m2
14:38 15.2 °C 5.4 °C 1024.3 hPa Calm   6.4 km/h 52% 0 mm 452.00 W/m2
14:43 15.2 °C 5.4 °C 1024.3 hPa Calm     52% 0 mm 432.00 W/m2
14:48 15.2 °C 6.2 °C 1024.3 hPa Calm   1.6 km/h 55% 0 mm 406.00 W/m2
14:53 15.2 °C 5.9 °C 1024.3 hPa SSE 1.6 km/h 1.6 km/h 54% 0 mm 390.00 W/m2
14:58 15.2 °C 5.7 °C 1024.3 hPa Calm   6.4 km/h 53% 0 mm 404.00 W/m2
15:03 15.2 °C 6 °C 1024.3 hPa Calm   6.4 km/h 54% 0 mm 392.00 W/m2
15:08 15.2 °C 5.9 °C 1024.3 hPa Calm     54% 0 mm 376.00 W/m2
15:13 15.2 °C 6.2 °C 1024.3 hPa Calm     55% 0 mm 364.00 W/m2
15:18 15.1 °C 5.9 °C 1024.3 hPa Calm   6.4 km/h 54% 0 mm 348.00 W/m2
15:23 15.1 °C 6.3 °C 1024.3 hPa Calm   6.4 km/h 56% 0 mm 334.00 W/m2
15:28 15 °C 6.6 °C 1024.3 hPa SSE 1.6 km/h 3.2 km/h 57% 0 mm 315.00 W/m2
15:33 14.9 °C 6.4 °C 1024.3 hPa Calm   3.2 km/h 57% 0 mm 246.00 W/m2
15:38 14.8 °C 5.6 °C 1023.9 hPa Calm     54% 0 mm 294.00 W/m2
15:43 14.8 °C 6.2 °C 1023.9 hPa Calm     56% 0 mm 292.00 W/m2
15:48 14.8 °C 6.1 °C 1023.9 hPa Calm     56% 0 mm 274.00 W/m2
15:53 14.7 °C 6.3 °C 1023.9 hPa Calm     57% 0 mm 239.00 W/m2
15:58 14.7 °C 6.5 °C 1023.9 hPa Calm     58% 0 mm 188.00 W/m2
16:03 14.6 °C 6.4 °C 1023.9 hPa Calm     58% 0 mm 188.00 W/m2
16:09 14.4 °C 6.8 °C 1023.9 hPa Calm     60% 0 mm 146.00 W/m2
16:14 14.3 °C 6.4 °C 1023.9 hPa Calm     59% 0 mm 141.00 W/m2
16:19 14.2 °C 6.3 °C 1023.9 hPa Calm     59% 0 mm 128.00 W/m2
16:24 14.1 °C 6.4 °C 1023.9 hPa Calm     60% 0 mm 120.00 W/m2
16:29 13.9 °C 6.6 °C 1023.9 hPa Calm     61% 0 mm 114.00 W/m2
16:34 13.8 °C 6.4 °C 1023.9 hPa Calm     61% 0 mm 90.00 W/m2
16:39 13.7 °C 6.8 °C 1023.9 hPa Calm     63% 0 mm 54.00 W/m2
16:44 13.6 °C 6.9 °C 1023.9 hPa Calm     64% 0 mm 42.00 W/m2
16:49 13.3 °C 6.9 °C 1023.9 hPa Calm     65% 0 mm 35.00 W/m2
16:54 13.1 °C 6.9 °C 1023.9 hPa Calm     66% 0 mm 32.00 W/m2
16:59 12.9 °C 6.9 °C 1023.9 hPa Calm     67% 0 mm 26.00 W/m2
17:04 12.7 °C 6.9 °C 1023.9 hPa Calm     68% 0 mm 19.00 W/m2
17:09 12.4 °C 7.1 °C 1023.9 hPa Calm     70% 0 mm 14.00 W/m2
17:14 12.1 °C 6.8 °C 1023.9 hPa Calm     70% 0 mm 11.00 W/m2
17:19 11.8 °C 6.8 °C 1023.9 hPa Calm     71% 0 mm 7.00 W/m2
17:24 11.6 °C 6.7 °C 1023.9 hPa Calm     72% 0 mm 0.00 W/m2
17:29 11.4 °C 6.6 °C 1023.9 hPa Calm     72% 0 mm 0.00 W/m2
17:34 11.3 °C 6.6 °C 1023.6 hPa Calm     73% 0 mm 0.00 W/m2
17:39 11.1 °C 6.4 °C 1023.9 hPa Calm     73% 0 mm 0.00 W/m2
17:44 10.8 °C 6.2 °C 1023.9 hPa Calm     73% 0 mm 0.00 W/m2
17:49 10.7 °C 6.2 °C 1023.9 hPa Calm     74% 0 mm 0.00 W/m2
17:54 10.5 °C 6.3 °C 1023.6 hPa Calm     75% 0 mm 0.00 W/m2
17:59 10.4 °C 6.3 °C 1023.6 hPa SSE 3.2 km/h 6.4 km/h 76% 0 mm 0.00 W/m2
18:04 10.2 °C 6.2 °C 1023.6 hPa SSE 1.6 km/h 9.7 km/h 76% 0 mm 0.00 W/m2
18:09 10.1 °C 6.3 °C 1023.6 hPa Calm   9.7 km/h 77% 0 mm 0.00 W/m2
18:14 10 °C 6.2 °C 1023.6 hPa SE 3.2 km/h 8 km/h 77% 0 mm 0.00 W/m2
18:19 9.9 °C 6.1 °C 1023.6 hPa Calm   9.7 km/h 77% 0 mm 0.00 W/m2
18:24 9.8 °C 6 °C 1023.6 hPa SE 3.2 km/h 9.7 km/h 77% 0 mm 0.00 W/m2
18:30 9.8 °C 5.9 °C 1023.6 hPa SE 3.2 km/h 11.3 km/h 77% 0 mm 0.00 W/m2
18:35 9.7 °C 6.1 °C 1023.6 hPa ESE 9.7 km/h 14.5 km/h 78% 0 mm 0.00 W/m2
18:40 9.6 °C 5.9 °C 1023.6 hPa East 8 km/h 12.9 km/h 78% 0 mm 0.00 W/m2
18:45 9.6 °C 5.9 °C 1023.6 hPa East 6.4 km/h 12.9 km/h 78% 0 mm 0.00 W/m2
18:50 9.6 °C 5.7 °C 1023.6 hPa East 8 km/h 12.9 km/h 77% 0 mm 0.00 W/m2
18:55 9.5 °C 5.5 °C 1023.6 hPa East 1.6 km/h 11.3 km/h 76% 0 mm 0.00 W/m2
19:00 9.5 °C 5.3 °C 1023.6 hPa East 6.4 km/h 11.3 km/h 75% 0 mm 0.00 W/m2
19:05 9.5 °C 5.3 °C 1023.6 hPa East 11.3 km/h 17.7 km/h 75% 0 mm 0.00 W/m2
19:10 9.5 °C 5.3 °C 1023.6 hPa East 6.4 km/h 14.5 km/h 75% 0 mm 0.00 W/m2
19:15 9.4 °C 5.2 °C 1023.6 hPa East 8 km/h 17.7 km/h 75% 0 mm 0.00 W/m2
19:20 9.4 °C 5.1 °C 1023.6 hPa East 3.2 km/h 16.1 km/h 74% 0 mm 0.00 W/m2
19:25 9.4 °C 5 °C 1023.6 hPa East 1.6 km/h 17.7 km/h 74% 0 mm 0.00 W/m2
19:30 9.4 °C 4.8 °C 1023.6 hPa East 3.2 km/h 11.3 km/h 73% 0 mm 0.00 W/m2
19:35 9.4 °C 4.8 °C 1023.6 hPa East 3.2 km/h 11.3 km/h 73% 0 mm 0.00 W/m2
19:40 9.4 °C 4.8 °C 1023.2 hPa East 1.6 km/h 19.3 km/h 73% 0 mm 0.00 W/m2
19:45 9.4 °C 4.6 °C 1023.6 hPa Calm   11.3 km/h 72% 0 mm 0.00 W/m2
19:50 9.3 °C 4.6 °C 1023.6 hPa ESE 6.4 km/h 11.3 km/h 72% 0 mm 0.00 W/m2
19:55 9.3 °C 4.3 °C 1023.6 hPa East 14.5 km/h 14.5 km/h 71% 0 mm 0.00 W/m2
20:00 9.3 °C 4.3 °C 1023.6 hPa East 3.2 km/h 12.9 km/h 71% 0 mm 0.00 W/m2
20:05 9.3 °C 4.3 °C 1023.6 hPa East 3.2 km/h 11.3 km/h 71% 0 mm 0.00 W/m2
20:10 9.3 °C 4.3 °C 1023.6 hPa Calm   14.5 km/h 71% 0 mm 0.00 W/m2
20:15 9.3 °C 4.3 °C 1023.6 hPa East 3.2 km/h 11.3 km/h 71% 0 mm 0.00 W/m2
20:20 9.3 °C 3.9 °C 1023.6 hPa East 6.4 km/h 14.5 km/h 69% 0 mm 0.00 W/m2
20:25 9.2 °C 3.8 °C 1023.6 hPa East 3.2 km/h 17.7 km/h 69% 0 mm 0.00 W/m2
20:30 9.2 °C 3.6 °C 1023.6 hPa East 8 km/h 11.3 km/h 68% 0 mm 0.00 W/m2
20:35 9.2 °C 3.4 °C 1023.6 hPa East 6.4 km/h 11.3 km/h 67% 0 mm 0.00 W/m2
20:40 9.2 °C 3.6 °C 1023.6 hPa ESE 6.4 km/h 20.9 km/h 68% 0 mm 0.00 W/m2
20:45 9.1 °C 3.3 °C 1023.6 hPa Calm   12.9 km/h 67% 0 mm 0.00 W/m2
20:50 9.1 °C 3.4 °C 1023.6 hPa Calm   11.3 km/h 68% 0 mm 0.00 W/m2
20:55 9 °C 3.4 °C 1023.6 hPa East 1.6 km/h 20.9 km/h 68% 0 mm 0.00 W/m2
21:00 8.9 °C 3.2 °C 1023.6 hPa East 1.6 km/h 12.9 km/h 67% 0 mm 0.00 W/m2
21:05 8.9 °C 3.1 °C 1023.6 hPa Calm   20.9 km/h 67% 0 mm 0.00 W/m2
21:10 8.8 °C 2.8 °C 1023.6 hPa ESE 8 km/h 12.9 km/h 66% 0 mm 0.00 W/m2
21:15 8.8 °C 2.6 °C 1023.6 hPa ESE 3.2 km/h 17.7 km/h 65% 0 mm 0.00 W/m2
21:20 8.8 °C 2.6 °C 1023.6 hPa Calm   17.7 km/h 65% 0 mm 0.00 W/m2
21:25 8.8 °C 2.6 °C 1023.6 hPa ESE 11.3 km/h 14.5 km/h 65% 0 mm 0.00 W/m2
21:30 8.7 °C 2.5 °C 1023.6 hPa Calm   14.5 km/h 65% 0 mm 0.00 W/m2
21:35 8.7 °C 2.5 °C 1023.6 hPa East 1.6 km/h 14.5 km/h 65% 0 mm 0.00 W/m2
21:40 8.7 °C 2.4 °C 1023.6 hPa East 9.7 km/h 14.5 km/h 65% 0 mm 0.00 W/m2
21:45 8.7 °C 2.4 °C 1023.6 hPa Calm   17.7 km/h 65% 0 mm 0.00 W/m2
21:50 8.6 °C 2.2 °C 1023.6 hPa East 6.4 km/h 14.5 km/h 64% 0 mm 0.00 W/m2
21:55 8.6 °C 1.9 °C 1023.6 hPa Calm   19.3 km/h 63% 0 mm 0.00 W/m2
22:00 8.6 °C 2.2 °C 1023.6 hPa Calm   11.3 km/h 64% 0 mm 0.00 W/m2
22:05 8.6 °C 1.9 °C 1023.6 hPa Calm   11.3 km/h 63% 0 mm 0.00 W/m2
22:11 8.6 °C 1.9 °C 1023.6 hPa Calm   9.7 km/h 63% 0 mm 0.00 W/m2
22:16 8.5 °C 1.9 °C 1023.9 hPa East 6.4 km/h 12.9 km/h 63% 0 mm 0.00 W/m2
22:21 8.4 °C 1.8 °C 1023.9 hPa East 1.6 km/h 14.5 km/h 63% 0 mm 0.00 W/m2
22:26 8.4 °C 1.8 °C 1023.9 hPa East 3.2 km/h 9.7 km/h 63% 0 mm 0.00 W/m2
22:31 8.3 °C 1.5 °C 1023.9 hPa Calm   6.4 km/h 62% 0 mm 0.00 W/m2
22:36 8.3 °C 1.4 °C 1023.9 hPa Calm   12.9 km/h 62% 0 mm 0.00 W/m2
22:41 8.2 °C 1.8 °C 1024.3 hPa Calm   12.9 km/h 64% 0 mm 0.00 W/m2
22:46 8.2 °C 1.6 °C 1024.3 hPa East 8 km/h 9.7 km/h 63% 0 mm 0.00 W/m2
22:51 8.2 °C 1.3 °C 1024.3 hPa East 1.6 km/h 12.9 km/h 62% 0 mm 0.00 W/m2
22:56 8.1 °C 1.3 °C 1024.3 hPa East 9.7 km/h 11.3 km/h 62% 0 mm 0.00 W/m2
23:01 8.1 °C 1.4 °C 1024.3 hPa East 6.4 km/h 9.7 km/h 63% 0 mm 0.00 W/m2
23:06 8.1 °C 1.2 °C 1024.3 hPa East 1.6 km/h 11.3 km/h 62% 0 mm 0.00 W/m2
23:11 8 °C 0.9 °C 1024.3 hPa ESE 1.6 km/h 12.9 km/h 61% 0 mm 0.00 W/m2
23:16 7.9 °C 1.3 °C 1024.3 hPa East 11.3 km/h 12.9 km/h 63% 0 mm 0.00 W/m2
23:21 7.9 °C 0.9 °C 1024.3 hPa East 8 km/h 8 km/h 61% 0 mm 0.00 W/m2
23:26 7.9 °C 0.8 °C 1024.3 hPa ESE 11.3 km/h 12.9 km/h 61% 0 mm 0.00 W/m2
23:31 7.9 °C 0.6 °C 1024.3 hPa East 9.7 km/h 12.9 km/h 60% 0 mm 0.00 W/m2
23:36 7.9 °C 0.6 °C 1024.3 hPa ESE 9.7 km/h 20.9 km/h 60% 0 mm 0.00 W/m2
23:41 7.9 °C 0.8 °C 1023.9 hPa East 3.2 km/h 3.2 km/h 61% 0 mm 0.00 W/m2
23:46 7.8 °C 0.8 °C 1023.9 hPa Calm   17.7 km/h 61% 0 mm 0.00 W/m2
23:51 7.8 °C 0.6 °C 1023.9 hPa Calm   14.5 km/h 60% 0 mm 0.00 W/m2
23:56 7.8 °C 0.6 °C 1023.9 hPa East 8 km/h 19.3 km/h 60% 0 mm 0.00 W/m2
Foresthill Weather
 WU-history PHP script courtesy of   Juneau County Weather.
powered by Cumulus v1.9.3 (1059)
Ambient Weather VWS v14.00
Top Contact Website Map Copyright © 2007 - 2018 Foresthillweather.com Never base important decisions on this or any weather information obtained from the Internet